Location: Unspecified
(0.0000°N, 0.0000°E)
Time: 18:41:46
(UTC+00:00)

deb Delta 126 - Pass Details

Date: 15 February 2026
Orbit: 1485 x 1545 km, 102.1° (Epoch: 6 March)

Event Time Altitude Azimuth Distance (km) Brightness Sun altitude
Enters shadow 02:22:54 - 35° (NE) 4,706 ? -55.6°
Exits shadow 02:38:48 20° 158° (SSE) 2,953 ? -52.0°
Drops below altitude 10° 02:41:18 10° 169° (S) 3,648 ? -51.4°
Sets 02:44:24 0° 177° (S) 4,624 ? -50.6°
